Regional Weather Roundup
Issued by NWS Green Bay, WI

Home | Current Version | Previous Version | Graphics & Text | Print | Product List | Glossary Off
Versions: 1 2 3 4 5 6 7 8 9 10 11 12 13 14 15 16 17 18 19 20 21 22 23 24 25 26 27 28 29 30 31 32 33 34 35 36 37 38 39 40 41 42 43 44 45 46 47 48 49 50

913
ASUS43 KGRB 161800
RWRGRB

NORTH-CENTRAL AND NORTHEAST WISCONSIN REGIONAL WEATHER ROUNDUP
NATIONAL WEATHER SERVICE GREEN BAY WI
1200 PM CST TUE JAN 16 2018

WIZ005-009-010>012-018-019-161900-
NORTH CENTRAL WISCONSIN

CITY           SKY/WX    TMP DP  RH WIND       PRES   REMARKS
IRONWOOD       LGT SNOW  17  13  84 NW8       30.50F FOG     WCI   7
MANITOWISH WTR NOT AVBL
ARBOR VITAE    NOT AVBL
EAGLE RIVER    LGT SNOW  17  10  76 NW9       30.44F WCI   5
LAND O LAKES   NOT AVBL
RHINELANDER    CLOUDY    19  10  68 N9        30.45F WCI   8
PHILLIPS       FAIR      17  11  75 N5        30.48F
ANTIGO         NOT AVBL
TOMAHAWK       NOT AVBL
MERRILL        FAIR      20  10  65 N10G17    30.48F WCI   9
$$

WIZ013-073-161900-
NORTHEAST WISCONSIN

CITY           SKY/WX    TMP DP  RH WIND       PRES   REMARKS
IRON MOUNTAIN  LGT SNOW  19  13  77 NW9       30.42F WCI   8
MARINETTE      CLOUDY    23  17  78 N6        30.49F
$$

WIZ017-030-035>037-045-161900-
CENTRAL WISCONSIN

CITY           SKY/WX    TMP DP  RH WIND       PRES   REMARKS
MEDFORD        NOT AVBL
WAUSAU         FAIR      20  10  65 N8        30.46F
MOSINEE        MOSUNNY   18  10  73 N10       30.49F WCI   6
MARSHFIELD     FAIR      18  11  74 NW8       30.48F WCI   8
WISC RAPIDS    FAIR      20  11  68 N9        30.51F WCI   9
STEVENS POINT  NOT AVBL
WAUPACA        NOT AVBL
SHAWANO        CLOUDY    23  14  67 CALM      30.48F
CLINTONVILLE   NOT AVBL
WAUTOMA        FAIR      25  13  60 NW8       30.50F
$$

WIZ038-039-048-051-161900-
FOX VALLEY

CITY           SKY/WX    TMP DP  RH WIND       PRES   REMARKS
NWS GREEN BAY  FAIR      21  10  62 NW6       30.48F
APPLETON       MOSUNNY   18   9  68 NW7       30.47F WCI   8
OSHKOSH        FAIR      19  10  68 N8        30.48F WCI   9
FOND DU LAC    FAIR      18   8  65 N8        30.48F WCI   8
$$

WIZ022-050-052-161900-
EAST CENTRAL WISCONSIN

CITY           SKY/WX    TMP DP  RH WIND       PRES   REMARKS
EPHRAIM        NOT AVBL
WASHINGTON ISL NOT AVBL
STURGEON BAY   FAIR      18  11  74 NW9       30.48F WCI   7
MANITOWOC      FAIR      21  10  62 NW14      30.47F WCI   8
SHEBOYGAN      FAIR      20   9  62 N15       30.45F WCI   6
$$

LMZ563-521-522-541>543-161900-
LAKESHORE

STATION/POSITION TIME  TEMP    WIND        PRES    VSBY  WAVE
                       AIR SEA DIR/SP/G                  HT/PER
                 (UTC) (F)     (DEG/KT/KT) (MB)    (MI)  (FT/S)
SHEBOYGAN LKSHOR 1700   19     340/ 13/ 15 1032.8R
KEWAUNEE LKSHORE 1730   19     330/  8/ 13 1031.0F
NORTHPORT PIER   1740   16     310/ 13/ 18 1031.8F
SISTER BAY LKSHO 1720   18        CALM       N/A
MENOMINEE LKSHOR 1730   17     340/  7/  8 1032.0F
$$




USA.gov is the U.S. government's official web portal to all federal, state and local government web resources and services.